Theta_e
314 313 311 313 319 321 321 322 321 322 321 317 317 318 316 318 318 318 318 317 315 312 308 307 308 309 310 310 310 310 310 312 313 312 311 316 313 314 317 315 314 315 313 310 310 311 319 323 322 324 324 323 322 322 322 324 322 319 320 321 321 320 318 316 317 318 319 319 317 317 318 319 318 316 313 314 317 316 313 312 317 322 322 322 322 322 322 323 325 326 326 325 323 322 321 321 322
313 311 312 316 320 321 321 321 321 321 320 317 318 318 317 317 317 317 318 317 315 310 306 307 307 308 306 306 307 308 310 311 312 313 313 312 311 315 316 314 311 313 314 310 309 313 322 322 318 322 323 322 322 321 322 323 319 317 320 321 320 318 317 317 317 317 316 313 312 315 317 318 317 315 313 314 314 312 311 310 317 323 322 321 321 321 322 324 325 325 325 325 323 322 322 321 322
312 311 315 320 321 321 321 321 321 319 319 317 317 320 318 317 317 318 318 316 312 307 306 306 306 307 307 308 308 309 311 310 309 310 311 310 312 317 317 313 307 313 314 311 310 310 319 319 314 318 319 322 322 321 322 321 315 317 321 320 319 318 317 318 317 314 310 307 309 313 315 317 316 314 313 313 311 309 311 310 315 321 321 321 321 322 322 324 325 324 325 325 322 321 322 321 322
311 313 318 321 321 321 321 322 321 319 318 317 316 320 318 318 318 318 316 312 309 306 307 307 308 308 308 311 310 309 311 310 309 309 311 311 313 318 316 311 307 313 313 311 311 307 312 313 311 313 315 321 321 321 322 316 313 318 320 317 318 317 316 316 313 308 305 305 307 312 314 315 314 313 312 312 310 309 311 310 314 319 320 321 320 322 323 324 324 324 325 324 323 322 322 322 322
312 316 319 320 321 321 322 321 321 319 319 318 317 319 319 318 318 318 315 310 307 307 307 308 309 308 307 308 308 310 312 311 310 308 311 312 312 317 315 309 307 311 313 312 310 307 308 308 308 309 312 319 321 322 318 311 313 321 318 313 313 312 312 311 307 304 303 304 306 310 311 311 311 311 311 311 309 308 309 310 314 318 319 320 320 321 323 324 323 323 324 323 323 324 324 323 323
315 319 319 320 320 319 320 320 320 319 320 321 319 319 319 317 318 317 315 311 307 307 307 308 309 308 308 308 308 310 311 310 310 307 309 311 311 317 315 308 307 310 312 312 309 307 307 306 307 307 310 319 322 321 314 309 315 321 318 311 308 306 306 306 304 303 303 304 305 308 308 307 308 308 309 309 306 305 307 309 314 317 319 321 320 321 322 323 322 322 323 323 323 324 324 324 324
316 320 320 320 319 319 319 319 318 320 321 321 320 320 320 318 316 315 315 313 309 307 307 307 307 308 310 308 308 309 308 308 309 309 308 310 311 316 315 308 306 309 311 311 309 307 306 306 306 305 310 319 324 321 313 311 317 321 318 311 306 304 304 304 303 303 304 304 304 305 305 305 305 307 307 307 304 303 304 307 313 316 318 321 320 321 322 322 321 322 323 323 324 324 324 324 324
317 319 320 320 320 320 319 319 319 321 320 319 319 319 319 318 315 315 316 314 311 309 308 307 306 309 310 306 308 309 306 307 308 308 308 308 310 314 315 309 306 309 309 309 308 307 306 306 306 305 309 318 324 322 316 314 318 320 318 312 306 303 303 303 303 303 303 304 304 304 304 304 304 305 306 305 302 302 301 304 311 315 318 320 320 321 321 321 322 322 323 323 324 324 324 323 323
317 318 318 319 320 320 319 319 319 320 320 318 318 318 318 317 316 315 316 314 311 310 309 308 307 309 310 306 309 310 307 307 307 307 308 308 309 312 314 311 307 307 307 307 307 307 306 306 306 304 308 317 323 323 319 316 317 319 317 311 305 303 303 303 303 304 304 304 304 304 304 304 304 304 305 304 302 302 300 303 310 314 317 320 320 321 321 321 321 322 323 323 323 324 323 323 323
317 317 319 319 319 319 317 318 319 319 320 318 317 318 318 316 315 315 315 315 311 311 309 306 306 308 309 309 310 310 309 307 306 307 308 308 308 310 313 312 308 306 306 306 306 306 306 306 305 304 307 315 322 323 320 318 317 318 316 311 306 304 303 303 303 304 304 304 304 303 303 303 304 304 304 303 302 302 300 303 310 313 316 319 320 320 320 321 321 322 323 323 323 323 323 323 323
317 317 318 318 317 317 316 317 318 319 319 316 317 317 317 315 314 314 313 313 311 311 308 305 307 308 308 310 311 310 307 307 307 308 307 308 308 309 312 312 309 306 305 305 305 305 305 305 304 303 304 311 320 322 319 318 319 318 317 311 307 307 306 304 304 304 304 304 303 303 303 303 303 303 303 303 302 302 300 301 308 313 315 317 319 320 320 320 321 322 323 323 323 323 323 323 323
317 318 317 316 317 317 317 317 318 320 319 317 318 316 314 313 313 314 313 313 312 311 309 308 309 309 310 311 312 309 307 307 306 307 307 307 308 308 310 312 310 306 306 305 305 305 305 305 304 303 303 308 317 320 319 319 319 319 318 313 309 310 310 307 304 304 304 303 303 303 303 303 303 303 303 303 303 302 301 300 306 312 314 316 317 318 319 320 321 322 322 323 323 323 322 322 322
317 318 318 316 318 318 318 318 318 319 318 318 318 312 309 312 314 315 314 313 311 312 311 310 308 308 311 312 311 310 308 307 306 306 307 307 307 308 308 311 310 307 306 306 305 304 304 304 303 303 303 305 312 317 317 318 319 319 318 314 312 313 314 310 305 303 303 303 303 302 302 303 303 303 303 303 303 303 302 300 304 310 313 315 316 317 318 319 321 322 322 323 322 322 322 322 321
317 318 318 317 318 318 318 318 318 318 318 319 317 309 308 311 313 312 313 313 313 312 309 308 307 308 311 312 312 311 310 307 306 306 307 307 307 307 308 310 310 307 306 306 305 304 304 303 303 303 303 305 311 315 315 315 316 317 317 315 314 314 315 311 305 302 302 302 302 302 302 302 302 303 303 303 303 303 302 300 302 308 312 315 316 316 317 319 320 321 322 322 321 321 321 321 321
316 317 318 318 318 318 318 317 318 317 317 319 313 307 309 310 309 310 311 313 314 308 306 306 306 310 312 312 313 311 308 307 307 307 307 307 307 307 308 309 309 307 306 306 305 304 304 303 302 303 303 305 312 315 315 313 310 311 313 313 313 313 313 310 304 302 302 302 302 302 302 302 302 303 303 303 303 303 303 300 301 308 312 315 316 316 317 319 319 320 322 321 320 321 321 321 321
315 317 318 318 318 318 317 317 318 317 318 317 308 304 310 311 307 309 309 309 311 306 305 308 306 308 310 311 312 309 306 307 307 307 307 307 306 307 308 309 309 308 307 306 305 305 304 303 303 303 303 304 307 311 312 311 307 305 306 308 309 309 309 307 303 302 302 302 302 302 302 302 302 302 302 303 303 302 303 300 301 308 312 314 316 316 317 319 319 320 321 320 321 321 321 321 321
315 316 318 318 318 318 317 317 318 317 317 315 308 305 310 311 306 307 305 304 309 308 306 308 307 306 308 309 309 306 305 306 307 306 307 307 307 308 308 309 309 308 307 306 306 305 304 304 303 303 303 303 304 305 306 307 305 303 304 304 304 304 304 303 302 302 302 302 302 303 302 303 303 302 302 302 302 302 303 300 300 307 312 314 316 316 316 318 319 320 321 320 320 321 321 321 321
316 316 317 317 317 318 317 318 317 315 316 314 308 307 309 311 308 306 306 306 308 308 307 308 308 307 307 309 307 304 305 305 306 307 310 311 310 311 311 310 309 309 308 307 306 306 304 304 304 303 303 303 304 304 304 304 304 303 304 305 304 304 303 303 303 302 302 302 303 303 303 305 304 304 303 302 302 302 302 301 299 304 311 314 316 316 316 318 319 320 320 320 320 321 321 321 322
316 317 317 316 317 317 315 316 316 315 316 314 309 306 307 310 309 307 309 312 310 309 310 309 308 309 309 309 307 306 305 305 306 308 313 315 312 313 313 312 311 310 309 308 307 306 305 304 304 304 304 304 304 304 305 304 304 303 304 305 305 305 304 304 304 302 302 303 303 304 305 306 304 304 303 302 302 302 302 301 299 301 308 313 315 316 316 317 318 319 321 320 320 321 321 321 321
315 316 316 316 317 316 314 314 315 315 314 314 312 306 305 308 308 307 310 313 313 312 313 312 311 312 312 311 311 310 308 308 308 309 313 314 313 313 313 314 312 310 309 308 307 307 306 305 304 304 304 304 304 304 305 305 305 304 304 305 306 307 306 305 304 303 302 303 303 304 307 306 304 304 303 301 302 303 302 302 300 299 305 312 314 316 316 317 318 319 321 320 320 321 321 321 320
314 314 316 316 314 315 315 314 314 313 310 312 311 306 307 308 305 306 309 312 314 314 314 314 314 314 314 314 314 313 310 310 310 310 311 312 313 312 312 313 312 310 309 308 308 307 306 306 305 304 305 304 304 305 305 305 305 304 304 305 306 308 308 306 305 303 303 304 304 305 306 304 304 305 303 301 302 303 303 302 301 299 304 312 314 315 316 316 318 320 321 320 320 321 320 320 320
313 314 315 315 312 315 315 314 313 310 306 308 309 308 310 307 305 307 309 312 315 316 315 313 314 314 315 314 312 310 309 308 310 310 310 311 311 312 312 311 310 310 308 308 308 307 307 306 305 305 305 305 305 305 305 305 305 304 305 305 306 306 306 305 305 304 304 304 304 305 305 304 305 305 302 302 302 302 303 303 302 299 304 312 313 314 316 316 318 320 320 320 320 321 320 319 320
313 314 313 312 311 314 314 310 310 307 306 308 308 308 308 307 309 309 308 311 313 314 314 312 313 313 312 310 308 307 308 308 308 309 310 311 311 311 311 310 309 308 308 308 307 307 307 307 306 305 305 305 305 305 305 305 305 304 304 305 306 306 305 305 304 304 304 304 304 304 305 306 306 305 303 302 302 303 304 303 302 300 303 310 313 314 315 316 318 319 320 320 320 320 319 318 319
311 313 312 310 309 312 312 307 307 305 306 308 306 305 306 309 310 308 307 309 310 311 311 311 311 311 309 307 307 307 308 308 308 309 309 310 310 310 310 309 308 307 308 308 307 307 307 307 306 305 305 305 304 305 305 305 305 304 305 305 306 306 305 304 305 304 304 304 304 305 305 306 307 306 304 303 302 303 304 303 302 301 300 305 311 313 314 316 318 319 320 320 320 320 319 318 317
310 313 312 308 306 309 309 305 306 305 305 305 303 305 308 309 308 306 307 309 309 310 310 309 309 309 307 306 306 307 307 307 308 309 308 309 308 308 308 308 307 308 308 307 307 307 307 307 306 306 305 305 305 304 304 305 305 305 304 305 306 306 305 305 305 304 304 305 305 304 304 306 306 306 304 303 302 303 303 302 302 301 300 300 306 311 313 316 318 319 319 320 319 319 318 317 316
311 312 310 308 308 308 306 305 306 305 304 304 304 307 308 307 307 307 309 310 309 309 309 309 308 307 307 306 306 306 306 307 308 308 308 308 307 307 307 306 307 307 307 306 306 306 307 307 306 306 305 305 305 304 305 304 304 305 304 305 306 306 306 306 305 305 305 305 305 304 304 305 306 306 304 302 302 303 303 303 302 302 301 299 305 311 312 315 318 318 319 320 319 318 317 315 314
309 309 308 308 308 306 304 305 305 303 303 304 305 309 309 306 306 309 311 308 306 307 307 306 304 305 306 306 305 305 305 306 307 307 307 307 306 307 306 306 307 306 305 306 306 306 306 306 306 306 306 305 305 305 305 304 304 304 304 304 305 306 306 306 305 305 306 305 305 304 304 304 305 305 304 302 302 303 303 303 303 302 301 299 304 311 311 315 318 318 319 319 318 317 315 314 313
305 305 306 307 306 304 304 304 304 303 304 304 304 307 308 307 306 308 310 306 305 307 307 307 305 306 306 306 307 306 306 306 306 306 306 306 307 307 307 307 307 305 305 306 305 306 306 306 306 306 306 305 305 305 305 304 304 304 304 304 305 306 306 306 306 305 305 305 304 304 304 304 304 304 303 302 301 303 304 303 302 302 302 299 302 308 310 314 317 317 318 318 318 316 314 314 313
302 303 307 308 306 306 304 302 302 302 304 303 302 305 308 309 306 308 310 307 306 307 307 307 308 307 308 307 307 306 306 306 305 305 305 305 306 307 307 307 306 305 306 306 306 306 306 306 306 306 306 306 305 305 305 304 304 304 305 304 305 305 306 306 306 305 305 305 304 304 304 304 304 304 303 302 301 303 303 302 302 302 302 300 301 304 308 313 317 317 318 318 316 315 313 312 313
303 303 306 307 308 308 303 301 301 302 303 302 302 306 310 311 309 309 309 306 304 305 306 307 307 307 307 306 305 305 305 305 305 306 306 305 306 306 306 306 306 305 305 306 306 305 305 306 306 306 306 306 305 305 305 305 304 304 305 305 305 305 306 307 306 306 305 305 304 304 304 304 304 304 303 303 302 302 302 302 302 302 302 301 301 302 305 312 317 317 317 317 315 314 312 311 312
306 304 304 307 308 308 304 301 302 303 303 302 303 306 309 310 310 309 307 304 303 305 307 307 308 307 307 307 307 306 307 307 307 307 307 306 306 305 305 305 305 305 305 305 306 306 305 305 305 306 306 306 305 305 305 305 305 304 304 306 306 306 306 306 306 306 305 305 304 304 304 304 304 304 303 303 302 302 303 302 302 302 302 301 301 302 303 311 316 316 316 316 314 313 312 311 310
306 307 308 308 307 308 306 302 301 305 304 302 304 307 309 310 310 308 305 304 304 304 307 307 308 308 308 308 308 308 308 308 308 307 307 306 306 305 304 305 305 305 304 305 305 305 305 305 305 305 305 306 305 305 305 305 305 304 304 305 306 306 306 306 306 305 305 305 304 305 304 304 304 304 304 303 302 301 303 304 302 302 302 301 302 301 303 311 316 316 316 315 314 312 311 309 308
307 307 310 310 307 308 307 303 301 303 305 304 305 307 308 309 310 308 306 306 305 306 307 308 308 308 308 308 308 308 308 308 309 308 308 307 306 306 305 305 304 304 304 304 305 305 305 305 305 305 305 305 305 305 305 305 305 304 304 305 306 307 306 307 306 305 305 305 305 304 304 304 304 304 304 303 302 301 302 303 302 302 302 302 302 301 304 312 315 316 316 315 313 311 311 309 306
308 307 308 308 307 306 306 306 303 302 304 306 306 306 307 308 309 309 308 308 308 308 308 308 309 309 309 309 309 309 309 309 309 310 310 309 308 307 306 305 305 304 304 303 304 304 304 304 304 304 305 305 305 305 305 305 305 305 304 304 305 307 307 307 306 306 305 305 305 305 304 304 303 304 304 303 302 301 302 302 301 301 302 301 302 302 304 310 315 316 315 315 312 310 309 308 305
309 308 308 308 306 305 307 307 305 303 305 306 307 307 307 308 309 309 309 309 308 308 308 309 309 309 309 309 309 309 309 309 310 311 312 309 308 308 306 305 304 304 303 303 303 303 304 304 304 304 304 305 305 305 305 305 305 305 305 304 305 306 307 307 307 306 305 305 305 305 304 303 303 304 304 303 302 302 301 301 301 301 301 301 302 302 303 309 315 316 315 314 312 310 309 307 306
309 309 308 309 308 306 307 307 304 303 306 307 307 308 308 309 310 310 310 309 309 309 309 310 311 310 310 310 310 310 310 311 312 312 312 309 308 307 306 305 304 304 303 302 302 302 303 304 304 304 304 304 305 305 305 305 305 305 305 304 304 305 306 307 307 307 306 305 305 305 305 304 304 304 304 304 303 302 301 301 301 301 301 301 301 302 305 310 315 316 315 313 311 310 308 307 305
308 309 308 308 308 307 307 307 304 303 307 309 309 309 309 309 310 311 311 311 311 311 311 312 312 312 312 311 311 311 311 312 313 312 310 309 308 306 305 304 303 302 302 301 302 302 303 304 304 304 304 304 304 305 305 305 305 305 305 305 305 305 306 307 307 307 306 305 305 305 305 305 304 304 304 304 303 302 301 301 301 301 301 301 301 303 304 308 313 315 314 311 310 308 306 306 305
307 307 308 308 308 308 307 306 304 303 306 309 309 308 310 311 311 312 312 312 312 312 312 312 312 312 312 312 312 312 312 312 312 312 310 309 308 306 304 303 303 302 302 301 302 303 303 303 304 304 304 304 304 305 305 305 305 305 306 305 305 306 306 307 307 307 306 305 305 305 306 305 305 304 305 304 303 302 301 301 301 301 301 301 301 302 302 304 310 315 313 310 308 307 306 306 305
308 308 308 308 308 308 307 306 304 305 307 310 310 309 310 312 312 313 313 311 312 312 311 312 311 312 312 312 312 312 312 312 313 313 311 309 309 307 305 303 302 302 303 302 302 303 304 303 304 304 305 304 304 305 305 305 305 305 305 305 306 306 306 307 307 307 306 305 305 305 306 306 305 305 304 304 304 302 302 302 301 301 301 301 301 301 302 303 309 314 313 309 308 307 306 305 304
308 308 308 308 309 308 307 307 305 305 307 308 309 309 312 313 313 313 312 312 314 312 310 310 310 310 312 312 312 311 311 313 314 313 312 310 309 309 307 305 303 302 302 302 302 303 304 304 304 305 305 304 304 305 305 305 305 305 305 306 306 306 307 307 307 306 306 305 305 305 306 305 305 305 304 304 304 303 302 302 301 301 301 301 301 301 302 303 307 312 312 310 309 308 306 305 304
310 310 308 309 309 307 308 308 306 307 307 306 309 311 312 314 314 313 313 314 315 313 310 311 311 311 310 310 311 311 310 312 313 312 312 310 309 309 308 306 302 301 302 302 301 302 303 303 304 305 305 304 304 304 305 305 305 305 305 306 306 306 307 306 306 306 306 305 305 305 306 306 305 305 305 304 304 303 302 302 302 301 301 301 302 302 302 302 304 309 312 310 309 309 308 306 305
310 311 310 310 308 307 308 309 309 311 311 308 309 310 311 314 314 314 314 314 313 313 312 311 312 311 311 311 314 314 313 312 311 310 310 309 309 310 309 306 303 303 302 302 301 301 302 303 303 304 305 304 304 304 305 304 305 305 305 306 306 307 307 307 306 306 306 305 305 305 305 306 305 305 305 304 304 304 302 302 302 302 301 301 302 303 303 302 302 306 310 311 310 310 309 307 306
309 310 308 308 308 308 309 311 312 312 311 309 308 311 311 312 313 314 315 313 313 314 314 313 312 310 310 312 314 315 315 314 313 312 310 309 309 310 310 308 305 305 304 302 301 301 302 303 303 303 304 305 304 304 304 304 305 305 306 306 307 308 309 308 307 307 306 305 304 305 305 306 305 305 305 304 304 304 303 302 302 302 301 301 301 303 302 302 302 304 307 310 310 309 309 308 308
311 309 306 307 308 310 311 312 312 311 311 310 308 310 311 311 312 314 314 312 313 314 314 314 313 312 312 313 314 315 315 314 314 313 310 309 309 309 310 308 306 304 303 301 301 301 302 303 303 303 304 304 304 304 304 304 305 306 306 307 307 308 309 309 307 306 306 305 305 305 305 305 305 305 305 305 304 304 303 302 302 302 301 301 301 302 302 301 302 302 304 308 310 309 309 309 309
310 306 306 307 308 310 311 311 312 310 309 311 310 308 310 312 312 314 313 312 313 314 314 315 314 314 316 317 315 315 313 311 310 309 308 308 308 309 308 307 306 303 301 301 301 301 302 302 303 303 304 304 304 304 304 304 305 306 306 307 308 308 308 308 307 306 306 305 305 305 305 305 305 305 305 305 304 304 304 303 302 302 301 301 301 301 302 301 301 302 303 306 308 309 309 308 309
307 304 306 307 307 309 309 311 313 310 309 312 311 307 309 311 312 314 312 311 314 314 313 314 314 315 316 315 314 312 310 309 309 307 306 306 307 308 306 305 305 304 301 301 301 301 302 302 303 303 304 304 304 304 304 304 305 306 306 307 308 308 308 308 307 306 305 305 305 305 305 305 305 305 305 305 305 304 304 303 302 302 302 302 301 301 301 301 301 301 302 303 305 308 309 308 308
305 306 309 310 308 307 308 309 310 311 311 312 309 305 309 310 311 314 313 313 315 314 313 314 314 315 315 314 313 311 308 308 307 306 306 306 307 306 304 305 306 304 301 301 301 302 302 303 303 304 304 304 304 304 304 304 305 305 306 307 307 307 307 307 307 306 305 305 305 305 305 305 305 305 305 304 304 304 304 304 303 302 302 302 302 301 301 301 301 301 301 301 303 306 308 308 308
306 309 310 311 309 308 309 309 309 311 312 310 307 305 308 309 310 313 313 313 312 312 312 313 313 313 313 314 313 310 308 307 306 306 306 308 310 309 307 307 307 304 302 302 302 302 303 304 304 305 305 305 304 304 304 304 305 305 306 306 307 307 307 307 306 306 305 304 305 305 305 305 305 305 304 304 304 304 304 304 303 303 302 302 302 302 301 301 301 301 301 301 301 303 305 308 308
308 310 309 310 309 309 309 310 309 310 310 307 305 306 308 310 311 312 312 312 311 310 311 312 312 312 311 313 312 310 308 307 306 306 307 310 313 311 309 309 308 306 305 304 303 303 303 304 305 306 306 305 304 304 304 305 305 305 305 306 306 307 307 307 306 306 306 305 304 305 305 305 304 305 305 304 304 304 304 304 303 303 303 302 302 302 302 301 301 301 301 301 301 301 302 304 306
309 311 310 310 309 308 309 310 308 309 310 306 304 306 310 311 311 312 312 312 311 311 311 311 311 311 311 310 309 309 310 309 307 307 309 312 312 310 310 309 308 308 306 304 303 303 303 304 304 306 306 305 304 305 305 305 305 305 305 306 306 306 307 307 306 306 306 305 305 304 305 304 305 305 305 305 304 304 304 304 303 303 303 303 302 302 302 302 301 301 301 301 301 301 301 301 303
310 309 309 309 309 309 310 310 309 310 311 308 305 308 312 312 312 312 311 310 311 310 310 310 309 309 308 308 308 310 310 308 308 310 312 312 309 308 308 308 307 307 306 304 303 303 303 304 304 305 306 306 304 304 305 305 305 305 305 306 306 306 306 306 306 306 306 306 305 304 304 304 304 305 305 305 304 304 304 304 303 303 303 303 303 302 302 302 302 301 301 301 301 301 301 301 301
309 307 308 310 309 308 309 309 310 310 310 310 308 310 313 312 312 313 311 310 310 308 307 308 309 309 309 312 313 312 311 310 311 313 314 312 310 308 307 307 306 305 304 304 304 303 303 304 304 304 305 305 305 304 305 305 305 305 305 305 305 306 306 306 306 306 306 306 305 305 305 305 304 304 304 304 304 304 304 303 303 303 303 304 303 303 302 302 301 301 301 301 301 301 301 301 300
308 308 310 309 306 307 310 308 305 306 311 312 310 311 312 311 312 314 313 311 309 307 306 307 309 310 312 317 317 314 313 314 313 314 313 312 312 310 307 306 306 305 304 304 304 304 303 303 304 304 304 305 305 304 305 305 305 305 305 305 306 305 305 305 305 306 306 306 305 305 305 304 304 304 304 304 304 304 304 303 303 303 303 304 304 303 302 302 302 301 301 301 301 301 301 301 300
309 310 309 306 305 306 309 310 309 309 312 313 310 310 311 311 312 314 314 313 311 310 309 309 311 314 315 318 318 315 313 312 311 311 311 310 312 312 308 305 304 304 305 305 306 306 305 304 304 304 304 304 304 304 304 305 305 305 305 305 305 305 305 305 305 305 305 305 305 305 304 304 304 304 304 304 304 303 303 303 303 303 303 304 304 303 303 302 302 301 301 301 301 301 301 301 300
306 308 304 305 310 311 309 310 311 311 311 312 311 310 310 309 311 313 312 313 312 311 311 311 311 313 314 316 319 319 316 313 312 310 309 310 310 310 308 305 304 304 305 306 306 306 306 306 305 305 304 304 304 304 304 305 305 305 305 305 305 305 305 305 305 305 305 305 304 304 304 304 304 304 304 304 303 303 303 303 303 303 303 304 304 304 303 302 302 301 301 301 301 301 301 301 300
304 306 304 304 308 310 310 309 309 311 311 310 312 313 313 312 311 311 312 312 312 311 312 312 312 312 313 314 316 318 317 315 313 311 310 310 310 309 307 305 304 303 303 304 304 305 306 306 306 306 305 304 304 304 304 304 304 304 305 305 305 305 305 305 305 305 305 304 304 304 304 304 304 304 304 303 303 303 303 303 303 303 303 304 304 304 303 303 302 302 301 301 301 301 301 301 301
307 308 308 306 306 306 308 307 306 309 310 309 310 314 315 312 311 311 311 312 312 312 312 313 314 314 314 314 314 316 318 315 313 312 311 311 311 309 307 304 303 302 302 302 303 304 304 305 305 306 306 305 305 305 305 305 304 304 304 304 305 305 305 305 304 304 304 304 304 304 304 304 304 304 304 303 303 303 303 303 303 303 303 304 304 304 304 303 302 302 301 301 301 301 301 301 300
309 310 310 310 309 307 310 310 306 305 308 309 309 312 314 313 312 311 311 311 311 311 312 311 312 312 312 313 314 317 318 316 314 313 314 314 314 311 307 305 303 302 302 302 302 303 303 304 305 305 305 305 306 306 305 305 304 304 304 304 304 304 304 304 304 304 304 304 304 304 304 304 304 304 304 303 303 303 303 303 302 303 303 303 304 304 304 303 302 302 302 301 301 301 301 300 300
Wind_Speed
8 8 7 4 4 4 2 2 4 2 2 6 4 4 2 2 3 6 6 2 3 1 1 1 3 4 2 1 3 4 4 4 3 3 1 2 1 3 11 10 7 15 21 19 20 19 17 18 17 16 15 14 13 13 12 11 10 9 8 8 8 6 5 5 4 3 3 3 2 2 1 1 2 2 2 2 2 3 4 5 5 6 7 8 9 9 10 11 13 14 14 15 15 15 15 15 15
8 7 5 2 3 3 1 0 5 4 4 7 3 3 1 1 3 7 6 4 3 2 1 1 3 3 2 3 3 4 6 7 4 3 2 2 4 4 12 11 8 16 21 20 21 19 17 18 17 16 15 14 14 13 12 12 10 8 9 8 7 6 5 5 4 3 3 3 2 2 2 2 2 2 2 2 2 4 5 5 5 6 7 8 8 8 10 11 13 13 14 15 15 15 16 16 15
8 5 3 1 1 1 1 1 6 5 5 7 4 2 1 3 6 5 4 6 3 3 1 1 2 3 4 5 4 4 4 4 4 3 2 5 4 4 14 12 9 17 21 21 21 19 18 18 17 16 15 15 14 13 13 11 9 8 9 8 7 6 5 5 4 4 3 3 2 2 2 2 2 2 2 2 3 4 4 5 4 5 6 7 8 8 10 12 13 13 14 15 15 15 16 16 16
7 4 2 1 1 1 2 3 5 6 6 6 5 1 2 5 4 1 3 4 2 2 3 3 3 2 6 8 3 3 6 3 3 5 2 2 2 5 15 12 11 18 22 21 20 19 18 18 17 16 15 15 15 14 13 11 9 9 9 8 8 7 6 6 5 4 3 3 2 2 2 3 2 2 2 3 4 4 4 5 5 5 6 7 8 9 11 12 12 13 14 15 15 16 17 17 17
6 2 3 1 1 1 1 3 3 5 7 5 4 1 2 5 3 2 3 1 1 4 4 3 3 2 3 6 1 2 3 2 3 5 2 1 3 9 16 12 12 18 21 21 19 19 18 17 17 16 15 15 15 14 13 10 9 10 10 9 8 7 7 6 5 4 3 3 3 3 4 4 3 3 3 3 4 4 4 5 5 5 6 7 9 10 11 12 12 12 14 15 15 16 17 17 17
3 2 4 2 1 1 2 4 4 6 8 5 6 5 3 3 3 4 3 1 2 4 3 3 2 0 3 3 4 4 1 1 1 5 5 2 5 12 16 13 13 17 20 21 19 18 17 17 16 15 15 15 15 15 12 10 11 11 10 9 8 7 6 6 5 4 3 3 4 4 4 4 4 3 3 3 4 4 5 4 4 5 5 7 9 9 11 12 12 12 14 15 16 17 17 17 17
3 2 2 2 2 0 5 7 7 8 5 5 7 8 6 2 1 4 5 2 3 4 4 4 1 3 4 1 4 7 6 5 0 2 7 4 6 14 16 13 13 17 20 20 19 18 17 17 16 15 15 15 16 15 12 11 12 12 11 9 8 7 6 6 5 4 4 4 4 5 5 4 4 4 4 4 4 4 4 4 4 4 5 7 9 9 11 12 12 13 14 15 16 17 17 17 17
2 2 1 2 2 2 6 7 8 8 3 3 6 8 7 2 1 4 5 2 2 3 5 5 3 4 2 1 3 3 7 12 8 5 7 6 7 14 16 14 14 18 20 19 19 18 17 16 16 15 15 15 16 15 13 12 13 13 12 9 8 7 6 6 5 5 5 5 5 6 5 5 5 4 5 4 4 4 5 4 4 4 4 7 8 9 10 11 12 13 15 16 15 16 17 17 18
1 1 1 2 3 3 5 7 8 8 5 4 5 8 7 3 3 6 7 4 3 3 5 5 5 5 1 1 6 0 3 11 13 11 9 8 9 14 17 16 15 17 19 19 19 18 17 17 16 15 15 15 15 15 14 13 14 14 12 10 8 7 7 6 6 6 6 6 6 6 6 6 6 6 6 5 4 4 5 4 4 3 3 6 8 9 11 12 12 13 15 15 15 16 17 18 17
1 2 1 2 3 5 7 7 7 6 6 5 6 9 7 4 4 6 8 5 3 3 2 2 4 7 4 4 7 1 2 5 9 11 11 11 10 14 17 17 16 17 18 18 18 18 18 17 16 15 15 16 16 16 15 14 14 14 13 10 8 8 7 7 7 7 7 7 6 6 6 6 6 7 7 5 4 4 4 3 3 3 3 5 7 9 11 11 12 14 15 15 15 16 17 17 17
2 1 0 2 5 7 7 8 8 6 3 2 7 9 6 4 5 6 8 6 4 4 2 4 3 8 6 6 5 1 2 3 5 7 11 13 11 14 18 19 17 17 17 16 17 17 17 17 16 16 16 16 16 16 15 15 14 14 13 11 9 9 8 7 7 7 7 7 7 6 6 6 7 7 7 5 4 4 4 3 3 3 3 4 6 9 10 11 13 14 14 14 15 16 16 16 16
4 2 2 5 7 7 7 8 9 7 4 5 8 5 3 5 6 6 8 6 5 6 6 8 3 2 6 5 2 1 2 5 5 7 11 13 13 14 18 20 19 18 17 16 16 17 17 17 16 17 17 17 17 17 16 15 15 14 14 12 10 10 9 8 8 7 8 8 7 7 7 7 8 8 7 5 4 4 4 3 3 3 4 3 5 8 9 10 12 13 13 14 14 15 15 15 14
3 3 3 5 5 6 7 7 6 6 7 7 7 1 2 6 7 7 6 4 5 6 6 9 3 1 6 5 1 2 3 5 6 9 11 13 14 14 17 20 20 19 18 17 17 17 17 17 17 17 18 18 17 17 17 16 15 15 14 12 11 10 10 9 8 8 8 8 8 8 8 8 8 8 7 5 4 4 4 4 3 3 4 3 4 6 8 10 11 12 13 14 14 15 14 14 14
2 2 4 4 2 4 6 7 6 7 8 4 2 2 3 4 4 4 4 5 7 5 1 4 4 2 6 4 2 2 3 3 6 9 11 12 15 15 17 20 21 20 19 18 17 18 18 18 18 18 19 18 17 17 17 17 17 15 14 13 12 11 11 10 9 8 8 9 9 8 8 8 8 7 7 6 4 4 4 4 4 4 3 2 3 5 7 9 11 12 12 14 14 14 14 13 13
2 1 3 4 3 4 4 6 5 7 7 1 2 2 3 4 1 3 5 8 5 3 1 2 4 3 3 4 2 3 4 2 4 8 11 12 14 16 17 20 22 22 21 19 19 19 19 19 18 19 20 19 18 16 16 17 17 16 15 14 13 12 12 12 10 9 9 10 10 9 8 7 7 7 7 6 5 5 4 4 4 4 3 2 2 4 6 8 10 12 13 14 15 14 13 13 13
1 1 2 4 5 5 5 5 4 6 5 1 2 1 3 5 3 3 3 4 4 2 2 4 6 4 2 4 1 5 4 2 5 8 10 12 14 16 17 20 22 22 23 22 22 21 20 20 20 20 21 21 20 18 17 17 17 16 15 15 14 13 13 12 11 9 9 10 10 9 8 7 6 6 6 6 5 5 4 3 4 4 2 1 1 4 5 7 9 12 13 15 14 13 13 13 15
1 1 3 5 5 6 5 6 5 4 4 1 2 2 5 4 3 3 1 3 7 3 3 5 5 5 7 7 2 3 4 3 5 8 9 10 11 13 15 18 20 22 25 25 24 23 23 22 21 22 22 22 21 20 19 18 17 16 15 15 15 14 13 13 11 10 10 10 10 9 8 7 6 6 6 5 5 4 3 3 3 3 2 1 1 3 4 6 8 11 13 14 14 13 13 12 16
3 3 4 7 7 6 5 7 5 2 5 1 2 2 6 5 1 2 1 6 9 6 7 9 7 10 15 13 9 9 7 5 7 8 9 9 9 10 12 15 18 20 24 27 28 26 25 24 23 23 23 22 22 22 21 19 18 16 16 16 15 14 14 13 12 11 11 11 11 10 8 7 6 6 6 5 4 4 3 3 3 3 2 1 1 2 3 5 7 9 11 13 14 13 13 11 13
4 2 4 7 6 4 3 4 5 5 7 3 0 2 5 6 2 1 4 9 9 9 10 9 10 15 18 17 17 17 12 9 10 10 10 11 12 13 13 14 17 19 22 28 31 30 29 27 25 25 24 23 23 23 21 20 18 18 18 17 16 15 14 14 13 12 12 11 12 10 8 7 7 6 6 6 4 3 3 3 3 3 3 1 1 1 3 5 6 7 9 12 13 12 11 11 13
3 2 5 6 3 3 3 5 7 7 6 7 5 2 4 7 3 1 6 13 12 12 12 10 12 15 16 15 16 15 14 15 14 13 13 14 15 16 15 15 17 22 27 30 31 32 31 29 27 26 25 24 24 24 22 21 20 19 19 18 16 15 15 15 14 13 13 12 12 10 8 9 8 6 7 6 4 3 3 3 4 4 3 2 2 1 3 4 6 6 8 10 10 10 10 11 16
2 3 6 2 2 5 6 7 8 5 3 8 6 1 6 6 2 5 8 12 14 12 13 13 14 16 16 14 9 9 11 14 14 15 16 17 18 18 18 19 21 25 29 30 30 32 33 31 30 28 27 26 25 25 23 23 21 20 20 18 17 15 15 15 14 13 13 12 12 11 10 10 8 6 7 5 3 2 2 3 4 4 3 2 2 1 2 3 4 5 7 9 8 8 9 12 18
2 4 4 1 3 5 4 3 5 2 2 6 5 5 7 2 3 9 11 13 13 10 8 11 14 17 15 12 4 5 8 11 12 14 16 18 20 20 20 21 23 25 27 29 32 34 33 33 32 30 28 27 26 26 25 24 22 21 21 20 18 17 17 16 15 14 13 13 12 12 11 10 8 6 7 5 4 2 2 3 3 3 3 2 3 2 2 2 3 4 6 7 6 7 8 12 18
4 4 2 3 5 5 2 2 2 3 4 6 6 5 4 5 10 9 13 18 17 14 8 7 13 14 10 7 4 6 10 11 12 14 16 18 20 21 21 21 24 28 29 31 33 34 35 35 34 32 30 29 28 27 26 25 23 21 21 21 19 18 18 17 15 15 14 13 13 12 10 8 7 6 6 5 4 2 2 3 3 3 2 2 3 3 2 2 2 3 4 5 5 6 8 12 17
5 5 3 4 4 6 4 2 2 3 7 7 2 4 6 13 12 4 10 18 19 19 14 11 14 12 8 8 11 12 13 13 14 16 17 18 21 24 24 24 27 31 30 31 33 34 35 36 35 34 32 31 30 28 28 26 24 23 22 21 20 19 19 17 16 15 14 14 13 12 11 8 7 6 5 5 4 3 3 3 2 3 2 2 3 4 3 1 2 2 3 3 4 6 8 11 15
7 8 4 2 3 7 5 1 5 5 8 6 3 8 14 15 7 8 17 20 19 19 16 16 16 13 12 14 16 15 15 16 16 18 18 19 22 23 25 27 28 28 29 32 33 33 35 35 35 36 34 33 32 30 29 28 26 25 23 22 22 22 20 18 17 16 14 14 14 13 11 9 7 6 6 5 4 3 3 3 2 3 2 2 2 3 4 2 2 1 2 2 3 5 8 11 13
7 8 2 2 3 5 3 5 8 5 5 3 5 15 14 7 5 13 23 19 15 13 13 15 12 13 14 13 15 14 14 16 15 16 16 16 18 20 25 27 26 28 33 34 34 35 36 35 35 35 36 35 33 32 31 29 28 27 25 24 24 23 21 19 17 16 15 14 14 13 12 11 9 7 6 5 4 3 3 3 3 3 2 2 2 3 4 4 2 0 1 2 3 5 8 10 11
3 4 1 5 5 2 2 6 6 2 4 5 8 17 11 1 2 13 15 4 1 3 7 8 7 11 12 11 12 11 12 14 14 13 13 12 13 17 22 22 25 32 34 34 36 36 36 36 35 35 36 36 35 34 32 31 29 27 26 25 25 24 22 20 18 17 17 15 14 13 12 12 10 8 7 6 4 4 3 3 3 3 3 2 3 4 5 5 3 1 0 1 2 4 7 9 10
1 1 3 6 5 4 6 8 5 2 5 5 7 15 12 1 3 18 15 3 3 5 9 8 8 11 12 12 11 9 10 14 13 11 13 14 14 15 18 20 26 32 32 34 37 36 36 36 36 35 35 36 36 36 34 32 30 28 27 26 25 25 23 21 19 19 18 17 15 14 13 13 11 9 7 6 5 4 4 4 4 4 3 2 4 5 6 6 3 1 1 2 3 5 7 9 10
1 1 5 6 5 7 6 4 2 3 3 2 3 11 11 8 12 24 15 2 2 10 13 13 12 13 12 12 10 9 10 12 10 10 15 16 15 15 19 25 28 30 30 33 34 34 36 36 36 36 35 36 37 37 36 33 31 29 27 26 26 25 23 22 20 20 19 17 16 14 14 13 11 10 8 7 6 5 5 4 4 4 4 3 4 6 6 6 3 2 2 4 5 6 7 8 9
2 1 3 6 6 5 2 1 1 4 2 2 3 7 7 9 16 20 6 3 4 10 13 12 10 9 10 9 8 9 10 10 10 13 16 16 16 17 22 27 27 28 29 28 30 33 35 35 36 36 36 36 36 38 37 34 32 30 28 27 26 25 24 23 21 20 20 18 17 15 15 13 12 11 9 8 7 6 5 4 4 4 4 4 5 6 6 5 4 3 3 4 5 5 6 7 8
1 1 1 3 5 2 4 2 2 4 1 2 5 6 7 6 9 7 2 2 4 8 12 11 9 8 8 9 8 10 10 11 13 16 18 18 19 21 25 27 24 26 27 26 29 30 32 34 36 36 36 36 36 38 38 36 33 31 29 28 27 25 24 24 22 21 21 19 17 17 15 14 13 12 10 9 8 7 6 5 5 5 5 4 6 7 7 6 5 4 4 4 4 4 6 7 9
1 1 3 2 3 2 2 2 2 2 0 2 5 6 8 10 8 1 3 1 4 8 13 12 13 14 12 11 10 11 10 11 14 16 19 19 19 22 26 27 25 26 27 27 28 28 29 32 34 35 36 36 36 38 38 36 34 31 30 29 27 26 24 24 23 22 21 20 19 17 16 15 14 13 11 10 9 8 7 6 6 5 5 5 6 7 7 7 6 5 5 5 4 5 6 8 10
1 3 5 2 3 3 1 2 1 2 1 3 6 6 8 9 8 2 3 4 7 12 17 15 15 15 12 11 9 10 10 10 11 13 17 16 16 19 22 25 25 27 28 27 27 27 28 29 31 33 35 36 37 38 38 36 35 32 31 29 27 26 25 24 23 23 22 21 19 18 17 16 15 14 12 12 11 9 8 7 7 6 5 6 6 7 7 8 7 7 7 7 6 6 8 9 10
3 3 5 3 3 3 3 1 2 1 2 4 6 8 15 16 13 11 8 10 13 17 19 17 15 13 12 10 10 10 10 11 11 12 13 12 12 14 17 20 22 22 24 25 26 27 27 28 30 32 33 35 36 37 38 37 35 33 32 31 29 27 26 25 24 23 23 22 21 19 18 17 16 15 14 13 12 11 10 9 8 7 6 7 7 7 8 9 9 7 8 9 8 7 8 10 11
2 3 3 2 2 3 5 3 1 1 3 5 7 10 19 22 17 15 14 13 15 18 18 16 15 15 13 11 11 11 10 12 12 12 11 9 10 12 12 15 17 18 20 22 24 25 26 27 29 30 32 34 35 37 37 36 35 33 32 31 30 29 27 26 25 24 23 23 22 20 18 17 17 16 15 14 13 12 11 11 10 8 8 8 8 8 8 10 11 10 10 11 11 9 9 11 13
1 1 2 4 4 4 7 4 1 1 5 8 10 12 17 22 18 14 13 12 15 18 17 15 13 12 11 11 12 11 11 12 10 10 10 9 10 11 11 13 15 16 17 19 21 24 25 26 27 29 31 33 34 35 35 34 32 31 31 31 30 30 29 28 26 25 24 24 23 21 19 18 18 17 16 15 15 14 12 12 11 10 10 9 9 10 9 11 13 13 12 12 13 12 12 12 14
1 1 3 5 5 6 7 3 1 1 5 7 7 11 17 21 21 16 12 12 15 17 16 14 11 9 9 10 11 11 11 10 8 9 11 10 9 9 10 12 13 14 15 17 19 22 24 25 27 28 30 32 33 34 34 34 33 31 29 30 30 30 30 29 27 26 25 26 25 22 20 20 19 18 17 16 16 15 14 14 13 12 12 11 10 11 11 12 14 14 14 13 14 13 13 13 14
2 3 5 5 5 6 4 1 0 1 3 4 1 9 17 20 22 17 11 11 13 14 13 13 10 9 8 8 10 10 8 8 8 8 6 5 5 6 7 9 11 11 13 16 18 19 22 25 27 28 29 32 33 34 35 36 37 35 32 32 30 29 30 30 28 28 27 26 25 23 22 21 20 19 19 18 17 16 16 15 15 14 13 13 12 12 12 13 15 16 16 14 13 11 12 15 15
3 3 4 4 3 4 2 1 1 2 2 3 2 8 17 20 21 18 12 10 11 9 8 10 10 8 8 7 7 7 8 8 7 5 2 2 3 4 5 5 9 10 11 14 17 17 20 24 26 26 28 31 33 34 36 36 37 37 34 32 31 29 30 30 29 28 28 27 26 25 24 23 22 21 20 19 18 17 17 17 16 16 15 15 14 13 13 14 16 18 17 14 12 9 10 16 15
4 3 4 4 0 2 3 1 1 3 3 5 6 8 13 16 16 14 9 6 5 4 6 9 9 9 8 6 6 6 8 8 7 6 3 2 3 3 3 3 6 9 10 12 15 17 18 21 23 24 26 30 32 33 35 35 35 35 31 29 30 29 28 29 29 28 28 27 28 28 27 25 23 22 22 20 19 18 18 18 17 17 17 16 15 15 16 16 18 20 19 16 14 11 10 15 16
4 6 6 5 1 2 4 2 3 5 2 3 8 7 8 8 10 12 5 4 3 3 5 9 9 8 7 6 7 6 7 7 7 8 5 4 5 4 4 4 5 9 11 13 16 18 19 20 22 24 24 27 30 32 33 34 33 31 27 23 23 23 22 24 26 26 28 29 30 31 29 27 25 24 23 22 21 19 18 18 19 18 18 18 17 16 17 18 19 21 21 19 17 13 10 13 15
3 5 7 5 1 2 4 3 4 5 2 1 5 5 4 5 11 15 7 3 6 4 5 10 8 6 5 5 6 5 5 6 6 7 6 6 6 5 4 4 5 8 10 14 16 17 19 19 22 23 23 25 29 30 32 33 32 31 29 24 20 19 17 21 27 28 30 32 32 32 31 28 26 25 25 24 22 20 19 19 19 19 19 19 18 17 17 18 20 22 23 22 19 15 12 11 13
3 1 2 1 2 1 3 4 4 4 2 1 1 4 4 7 13 12 5 7 11 6 4 7 6 4 3 4 4 2 2 4 5 6 6 5 5 5 4 3 4 6 8 12 14 16 17 17 20 23 22 24 27 29 31 32 31 31 33 31 27 23 18 22 29 29 30 33 32 32 31 29 28 27 26 25 24 22 21 20 20 20 21 21 20 19 18 20 21 22 24 24 20 18 16 13 12
1 1 1 3 4 3 3 3 3 2 4 1 2 2 3 6 10 4 3 8 9 5 3 4 3 2 2 3 3 3 4 4 5 6 6 6 5 4 5 4 4 5 6 9 12 14 16 16 18 21 21 23 26 28 31 33 32 32 34 33 30 28 24 25 29 28 28 30 31 31 31 30 29 29 28 27 26 24 22 21 21 22 22 22 22 21 21 21 22 23 24 26 24 21 21 17 13
1 2 1 2 2 2 2 3 3 1 3 3 3 0 3 5 8 2 3 6 5 1 4 5 4 3 0 2 3 4 5 5 6 6 7 7 6 5 5 6 6 6 6 8 10 13 15 17 18 20 21 23 26 28 31 33 33 33 34 32 28 29 29 27 27 27 27 28 30 31 31 31 31 30 30 29 27 26 24 23 23 23 24 24 23 23 23 23 23 24 24 27 28 26 25 21 14
2 4 3 2 2 1 1 2 2 1 3 4 3 0 3 5 8 5 0 3 3 1 1 1 1 2 3 4 5 5 5 5 5 6 7 8 7 7 7 7 7 6 6 7 9 11 14 16 18 19 21 23 25 28 31 33 34 34 34 33 31 30 30 27 24 24 25 26 28 30 31 32 32 32 32 31 29 28 26 25 25 25 25 25 25 24 25 24 24 24 25 26 29 29 28 26 19
3 4 2 2 2 1 1 0 1 2 3 1 3 0 2 4 6 4 2 2 1 1 2 2 3 4 4 4 5 6 6 5 6 6 7 7 7 6 6 6 5 4 5 6 8 10 13 15 17 18 20 22 25 28 31 33 35 35 34 35 35 34 32 29 26 24 25 27 28 30 32 33 33 33 33 32 32 30 28 27 26 26 26 25 26 26 26 26 25 25 26 26 28 30 29 29 27
1 2 2 2 2 2 2 2 1 3 3 2 3 1 2 5 5 2 1 2 2 3 4 6 7 7 8 7 6 6 6 6 7 7 6 5 5 4 3 4 3 3 5 6 8 10 11 14 15 17 18 22 25 28 31 33 35 36 36 36 37 36 34 33 30 29 29 30 30 30 31 32 32 33 33 34 33 32 31 30 28 27 27 27 27 27 27 27 27 27 27 28 28 30 31 31 30
2 2 2 3 2 1 3 2 2 3 1 3 1 1 2 8 9 8 10 9 6 6 6 8 9 8 10 9 7 6 6 6 6 5 5 4 4 3 3 3 2 3 5 6 9 11 12 13 14 15 17 21 25 27 30 32 34 37 37 37 37 36 35 35 35 33 33 33 32 31 31 32 33 33 34 35 35 34 33 32 31 29 29 29 28 29 28 28 28 28 29 30 30 30 32 32 32
4 3 3 3 2 2 3 2 1 3 0 2 1 1 3 7 7 9 13 10 6 5 6 6 5 7 10 9 8 7 6 5 4 4 4 4 4 4 3 3 3 3 4 6 8 11 12 14 16 15 15 19 24 26 29 32 34 37 38 38 38 37 36 37 37 36 36 36 35 34 34 34 34 34 35 35 34 34 34 34 33 31 30 30 29 29 29 29 29 29 30 30 31 31 31 32 33
3 1 0 2 2 2 3 2 2 2 2 1 2 1 4 4 1 3 8 8 6 6 5 4 4 5 7 6 6 7 6 4 3 3 4 4 4 4 4 4 4 4 4 6 9 11 12 13 16 17 16 19 24 26 28 31 33 36 37 38 39 38 38 38 38 38 38 37 37 36 35 35 35 35 34 33 33 33 33 34 33 32 31 31 30 29 29 29 30 30 31 31 31 31 31 31 33
2 1 0 2 1 1 1 1 1 2 3 2 3 3 5 4 6 8 8 7 6 6 4 3 4 4 3 4 5 4 4 4 3 3 3 3 3 2 3 4 4 4 5 7 9 12 13 13 15 18 17 18 23 25 27 29 31 33 35 38 39 38 38 37 38 38 38 38 37 37 36 36 35 34 33 33 33 33 32 33 33 32 32 31 30 30 30 30 30 30 31 31 31 31 31 31 31
2 3 2 0 2 1 1 1 1 0 4 2 2 5 5 3 6 6 4 3 2 1 0 1 3 3 3 3 3 3 3 4 4 4 4 4 3 2 2 3 4 4 6 7 9 11 13 14 15 17 18 19 21 24 26 28 29 31 34 36 38 38 38 39 39 39 39 38 37 37 37 36 36 35 34 33 32 32 31 32 33 33 32 32 32 31 30 30 30 30 31 32 32 31 31 31 31
1 2 1 1 1 1 0 2 1 1 4 2 1 5 5 2 2 3 3 3 2 2 1 2 3 2 3 4 3 3 3 3 4 4 4 5 4 3 2 3 5 5 6 7 9 10 12 14 16 17 19 21 22 24 26 28 30 32 34 35 37 38 38 39 39 39 39 38 37 37 37 37 37 36 34 33 32 32 31 32 32 32 32 33 32 31 30 30 30 30 31 32 32 31 30 31 31
1 0 1 0 1 1 1 2 2 2 3 3 2 5 4 4 4 4 5 4 3 3 2 4 5 3 3 4 3 3 2 2 3 3 3 4 4 4 3 4 6 7 7 7 8 10 13 15 17 19 20 21 22 24 26 28 30 33 34 35 36 37 37 38 39 38 37 36 37 38 38 38 38 36 35 34 33 32 31 31 31 32 32 32 32 31 31 30 30 31 31 32 32 32 31 31 32
0 1 1 0 2 1 1 1 1 2 2 3 3 3 4 6 6 5 8 6 5 5 4 4 5 5 4 3 3 4 4 4 4 4 5 4 5 5 4 5 9 10 10 9 9 12 14 16 18 20 21 22 23 25 27 28 31 32 34 34 34 35 36 37 38 37 36 35 36 37 38 38 38 37 36 35 34 33 33 32 32 32 32 32 32 32 31 31 31 32 32 33 33 33 33 34 34
4 4 4 3 1 1 2 1 0 1 2 2 2 4 6 4 4 8 13 11 7 6 5 5 5 5 4 2 2 3 4 5 5 5 5 6 6 5 5 7 11 13 13 13 13 14 15 16 19 20 22 23 24 26 28 30 31 32 33 34 34 34 35 35 36 36 36 35 36 37 38 38 38 38 37 36 35 34 34 34 33 33 33 33 33 33 33 32 32 33 34 34 34 35 35 36 36
3 5 5 6 5 3 3 3 1 1 2 2 1 5 9 3 3 7 12 10 7 5 6 7 6 5 3 2 2 3 4 5 6 6 6 6 7 7 6 8 10 11 13 14 14 15 16 18 19 21 22 24 25 27 29 30 31 32 33 33 33 33 33 33 34 35 36 36 37 38 39 38 38 38 37 36 35 35 35 35 35 35 35 35 34 34 33 33 34 35 35 35 36 36 36 37 37
Wind_Direction
335 338 342 339 336 325 264 269 274 244 258 275 264 282 254 186 327 287 268 246 273 251 153 332 153 156 149 294 300 318 305 237 263 280 350 64 306 222 180 175 164 170 175 173 174 175 173 180 180 179 180 181 182 183 188 189 194 194 187 186 187 189 190 188 180 181 192 221 241 249 271 279 293 301 315 352 354 346 350 359 7 359 353 345 339 338 340 335 336 339 339 339 336 332 333 330 324
333 337 346 352 351 320 232 173 279 268 256 272 248 249 313 115 258 266 286 306 315 62 56 285 184 222 294 318 315 292 254 224 268 314 339 286 291 245 190 178 170 173 177 177 176 175 173 182 183 180 181 181 182 184 187 191 199 195 187 187 189 192 190 185 181 186 206 234 245 250 271 286 297 306 322 342 334 343 351 0 10 359 348 341 340 341 342 337 339 339 335 339 338 333 334 333 327
331 340 9 3 28 328 228 204 262 269 265 272 272 215 137 257 253 263 321 321 337 80 226 180 198 248 233 246 244 257 254 228 258 251 269 268 285 213 186 180 175 175 180 181 180 180 177 184 186 183 183 181 182 184 187 195 203 193 188 189 188 189 185 186 191 200 220 236 238 251 268 282 294 306 322 331 331 346 350 355 2 356 348 345 345 343 341 338 339 336 334 338 340 336 334 334 331
331 342 49 15 189 219 236 240 257 265 267 269 283 192 176 263 261 268 337 329 336 142 196 173 196 205 223 245 238 263 264 252 219 209 252 261 260 181 178 180 174 174 182 184 184 185 183 188 188 185 185 182 182 183 188 199 202 192 192 192 189 190 189 196 204 208 220 228 229 244 256 270 282 298 318 327 332 344 342 348 352 348 351 349 346 342 340 340 338 333 335 337 337 337 336 335 333
325 4 64 63 225 271 256 258 256 244 257 263 278 255 216 250 241 285 326 329 221 203 194 195 221 135 230 260 251 259 256 235 179 199 242 276 212 181 177 179 174 177 183 186 188 188 189 191 189 187 186 184 183 183 190 200 197 193 198 199 195 194 197 203 208 208 213 222 225 238 250 264 274 289 312 322 331 339 335 341 344 346 354 350 344 342 342 343 338 333 336 338 336 336 335 335 331
300 80 67 85 115 330 245 250 238 236 252 254 269 275 258 231 236 298 309 244 180 207 211 217 250 338 252 239 219 249 294 61 127 192 215 240 194 182 181 181 178 181 185 189 191 191 193 194 191 189 187 186 183 186 193 195 193 193 201 205 197 195 198 203 205 205 209 218 227 241 252 264 273 288 302 314 330 335 332 331 333 343 356 351 345 343 344 345 340 336 338 337 336 335 333 331 328
240 182 63 116 127 198 247 252 247 251 244 225 258 270 270 246 221 301 297 267 171 193 214 223 267 291 261 193 227 240 237 231 127 178 197 205 188 184 187 185 183 185 188 191 193 194 196 195 194 192 188 187 185 189 193 190 191 192 202 208 200 195 197 201 205 205 209 218 230 246 254 265 274 287 297 311 329 331 328 323 323 338 359 352 345 345 346 346 344 341 340 338 337 334 331 328 328
244 237 356 247 201 200 251 254 252 258 236 211 258 262 275 296 184 281 288 274 208 191 192 206 204 248 254 132 246 219 226 232 228 228 200 200 193 189 193 190 188 189 191 193 195 196 197 197 197 195 189 189 188 191 193 191 191 192 203 211 203 200 201 203 206 208 211 219 231 248 258 267 274 283 290 309 331 331 323 315 315 329 359 353 346 348 348 348 347 343 342 340 336 333 331 330 330
312 330 197 247 235 229 249 250 252 254 244 243 253 247 261 270 239 268 271 255 240 225 196 191 188 227 352 208 252 284 225 235 228 234 220 209 198 197 199 197 195 193 194 195 197 197 197 200 199 197 191 191 191 193 195 195 194 194 204 212 207 204 205 207 209 212 214 221 233 248 260 267 273 277 283 308 330 331 328 313 306 314 352 355 347 349 350 350 349 347 345 342 338 334 333 332 332
275 358 208 231 242 245 247 247 249 248 246 249 257 251 250 236 226 247 257 265 235 213 182 128 194 237 305 293 263 268 206 227 224 231 226 217 203 201 204 202 201 199 198 196 198 198 199 203 202 199 195 193 193 195 198 199 199 199 206 213 211 210 210 211 213 216 220 225 235 246 258 265 270 274 282 307 324 328 335 318 302 297 333 355 348 350 354 352 353 352 348 345 340 335 333 335 336
219 76 130 231 233 242 245 249 248 245 244 270 268 251 244 222 221 243 243 262 234 209 172 137 210 234 255 279 259 180 204 232 223 229 226 220 211 203 205 206 204 202 203 202 200 200 202 205 205 203 199 197 196 199 202 203 204 203 208 214 214 213 215 216 218 222 226 232 239 246 256 261 264 272 285 303 317 328 339 330 306 289 310 345 349 353 356 353 355 354 350 347 340 336 339 342 342
225 146 171 238 238 242 251 259 259 265 269 257 259 235 207 190 201 240 224 236 227 218 208 183 203 234 226 259 235 144 228 243 231 229 227 218 214 207 206 208 207 204 205 206 204 204 205 206 208 206 202 201 200 202 206 206 207 206 211 217 216 215 218 221 223 227 231 240 246 250 255 257 262 271 284 296 310 328 341 340 315 291 296 323 349 355 358 359 358 354 352 346 340 344 349 347 344
231 164 188 237 249 249 257 268 271 284 278 249 249 186 130 183 203 237 216 224 221 219 221 195 189 313 249 277 279 241 218 225 235 230 222 213 213 211 208 208 209 206 205 207 207 208 209 210 210 209 207 204 203 205 208 210 210 211 214 219 219 217 220 227 230 233 236 243 250 255 257 257 264 271 279 289 305 326 340 344 327 305 293 305 346 357 2 7 0 355 352 347 346 351 354 350 350
223 180 214 234 249 252 252 264 269 268 268 248 205 121 176 218 233 242 212 235 224 205 259 196 184 242 257 268 240 217 163 209 238 223 212 209 210 211 209 207 209 209 207 207 209 211 211 214 213 212 211 207 206 209 212 213 213 214 216 220 220 220 222 231 237 237 238 244 252 256 260 261 266 272 276 286 303 321 336 340 335 322 295 291 342 359 8 10 359 354 353 353 357 357 357 355 357
200 177 227 241 240 242 226 238 268 267 264 252 96 99 215 242 246 229 226 250 248 118 37 180 187 236 231 225 223 113 125 215 214 200 202 206 207 210 209 206 209 210 210 209 210 213 213 216 215 214 213 209 207 208 212 215 216 216 217 219 221 223 225 233 240 240 240 244 251 254 259 264 269 274 278 287 299 315 331 335 341 332 300 273 341 359 10 7 355 354 359 3 5 3 6 6 9
194 156 202 248 238 227 208 206 243 263 265 93 94 69 248 235 184 241 253 278 296 120 206 195 192 259 262 232 271 101 144 192 175 188 196 202 205 208 208 207 210 212 212 211 212 214 214 216 216 216 215 213 211 210 211 214 217 218 220 222 222 226 228 235 240 241 241 243 246 249 256 263 272 280 284 289 296 310 323 332 343 339 306 250 337 2 8 2 353 356 3 8 10 12 17 15 19
145 188 213 237 226 215 199 197 208 261 298 75 131 194 249 250 162 236 323 262 260 219 213 214 203 247 246 242 253 147 198 208 186 190 188 197 201 202 208 209 210 213 215 214 215 215 214 216 216 217 217 215 215 215 215 215 217 218 221 225 226 228 231 237 239 238 238 240 242 243 252 260 271 282 290 291 293 307 317 333 349 343 314 242 318 1 1 353 351 359 6 9 13 20 24 15 18
187 185 217 228 224 218 200 215 218 282 305 296 128 201 247 273 200 198 225 229 235 239 244 237 242 247 242 249 257 242 236 225 210 197 189 193 196 200 206 207 209 213 216 216 217 217 216 216 216 217 218 217 217 217 218 217 217 218 220 224 226 228 231 234 234 236 235 235 238 240 248 254 263 277 288 291 290 303 314 335 352 345 321 249 279 349 350 339 344 0 6 6 14 24 26 14 12
208 169 218 228 221 218 194 229 231 247 279 297 194 205 243 271 290 131 255 253 237 243 251 232 241 251 246 246 245 241 234 228 223 211 204 202 202 207 207 205 207 211 214 217 219 219 217 217 217 217 218 217 218 218 218 218 218 218 220 222 224 227 229 230 230 233 232 231 236 238 241 249 258 271 283 288 289 298 316 338 350 343 324 261 237 335 339 327 335 357 2 1 14 26 25 16 14
214 193 228 231 221 248 229 225 234 239 270 287 274 196 240 256 256 192 256 269 255 245 251 236 244 255 254 246 233 227 227 229 227 221 221 219 217 217 215 209 209 214 218 220 221 221 219 219 218 218 218 217 218 218 218 218 218 219 220 222 223 223 225 227 229 231 231 232 236 234 235 248 257 266 279 288 291 296 314 332 346 340 326 277 225 313 326 319 331 350 358 0 15 26 23 22 24
186 203 235 214 128 250 232 213 235 246 256 271 276 261 260 256 223 230 249 268 262 252 246 238 252 263 265 263 233 203 220 229 225 224 229 230 229 227 226 222 221 223 225 224 223 224 223 221 220 219 218 217 217 217 218 218 218 219 220 221 221 219 221 224 228 230 231 233 233 232 236 248 253 258 273 284 278 279 299 313 336 334 320 279 225 244 306 312 331 343 356 3 18 25 24 29 31
191 210 254 194 155 238 228 185 233 238 224 254 252 255 271 280 217 232 236 252 262 269 250 231 249 262 270 276 251 190 220 228 224 224 226 231 233 232 231 230 230 229 229 227 227 229 227 224 222 220 219 217 217 217 217 218 218 219 220 222 221 220 222 223 227 228 228 231 232 233 236 244 246 250 267 272 264 264 276 289 317 323 313 270 223 211 279 301 328 343 356 5 20 27 29 34 36
234 209 235 217 196 232 230 118 209 196 215 236 240 267 294 266 257 241 232 246 259 268 264 245 253 261 279 292 257 233 235 232 231 227 225 230 233 233 232 231 233 233 233 232 232 232 230 226 223 221 220 218 218 217 217 219 218 219 221 222 222 221 223 224 226 226 226 229 230 231 231 234 235 240 258 263 260 250 248 267 296 312 300 259 222 210 247 280 308 345 4 5 22 30 32 38 39
248 231 223 218 191 230 239 105 192 208 231 242 277 303 271 253 265 289 247 249 256 262 263 259 260 262 270 270 257 252 252 248 245 239 234 235 238 240 240 237 238 238 236 234 233 233 232 229 224 221 220 219 218 217 216 217 218 218 221 222 221 221 223 224 225 225 225 227 228 228 225 225 226 232 245 251 255 242 236 251 276 292 280 248 218 207 219 241 278 346 11 2 22 27 34 40 40
229 235 228 191 184 233 243 213 238 234 241 257 296 269 259 257 287 305 267 258 256 258 260 257 259 260 256 257 259 257 257 256 253 249 242 241 245 247 246 243 242 239 237 236 235 233 234 232 226 221 221 220 219 218 216 216 217 217 218 219 219 221 221 222 224 224 222 223 226 227 224 221 221 227 235 241 247 240 234 240 257 273 269 240 209 203 201 205 249 352 18 3 29 31 40 42 40
215 221 205 204 230 244 238 250 249 239 243 236 254 262 261 268 319 281 263 258 260 259 257 257 257 259 256 254 256 255 255 255 253 250 245 242 244 246 247 244 239 238 239 239 237 236 236 233 228 223 221 221 219 218 217 216 217 217 217 217 218 220 219 221 222 220 218 219 225 226 221 219 219 221 230 239 242 239 235 230 244 258 256 227 191 193 194 193 210 130 29 6 30 41 48 45 41
199 202 234 248 255 270 224 250 253 254 259 209 236 267 269 38 355 271 260 238 259 264 245 246 242 251 253 250 253 250 250 254 253 254 254 246 236 238 243 238 233 238 240 238 238 238 236 233 231 227 222 221 220 219 217 216 217 217 217 217 218 219 218 219 219 216 216 217 222 223 219 218 219 221 229 238 237 232 230 224 236 247 246 213 188 191 195 195 188 158 109 16 46 63 55 47 46
86 177 260 250 256 265 235 248 260 255 259 208 229 271 270 161 208 254 254 135 113 269 254 243 240 251 253 250 252 247 249 256 254 252 253 248 236 233 236 233 234 239 239 239 240 237 235 233 232 229 224 221 220 220 218 217 217 217 218 218 218 219 218 218 216 215 216 218 222 220 216 217 219 224 230 236 233 224 223 218 222 236 234 201 191 194 196 198 187 170 148 110 99 83 63 51 53
105 215 278 269 272 267 232 237 256 218 245 168 211 275 260 202 215 246 251 145 245 273 268 261 254 256 260 257 256 252 253 256 251 244 246 246 238 230 237 242 242 242 242 244 242 236 235 233 231 230 225 221 220 220 219 217 217 216 217 218 219 219 218 217 216 216 215 218 222 217 215 216 217 222 227 233 231 222 220 213 211 229 228 195 190 195 193 194 182 173 142 120 112 87 69 59 58
204 145 298 291 285 270 189 142 204 207 229 146 214 279 265 204 220 244 263 60 277 271 267 263 254 250 256 255 253 255 254 248 242 241 244 246 244 240 246 250 246 244 246 247 243 238 235 232 229 229 226 222 220 220 220 218 217 216 216 217 219 219 218 217 216 217 217 218 220 216 216 215 215 219 223 229 228 220 218 208 202 219 224 195 186 193 190 187 177 171 154 135 123 92 77 71 69
241 109 264 278 275 242 129 161 212 207 196 169 229 263 276 266 246 241 27 28 257 265 266 265 265 261 261 259 255 257 254 246 244 247 250 252 254 254 255 255 248 246 246 246 246 242 236 232 229 227 226 223 220 220 220 219 217 216 216 217 218 218 218 218 217 217 217 218 218 217 216 215 216 218 218 223 224 218 213 204 200 208 214 197 185 190 191 186 177 173 171 157 134 106 90 85 81
70 271 241 191 232 239 124 146 219 257 111 173 231 263 277 281 279 175 83 245 227 261 269 271 274 273 270 267 263 261 260 258 253 252 255 255 254 257 259 258 252 248 248 247 247 242 235 232 229 226 224 222 219 220 220 219 219 216 216 217 217 217 218 219 218 218 218 217 217 217 216 216 216 216 215 218 222 217 207 202 200 199 202 200 192 188 188 187 183 179 177 171 145 124 110 97 91
163 235 255 216 223 270 325 129 137 297 295 199 227 273 290 275 270 246 141 236 262 274 275 274 271 272 271 267 265 265 269 272 266 259 258 255 253 257 261 262 257 252 250 248 243 239 233 231 228 224 223 222 220 220 219 219 219 217 217 217 218 218 219 219 219 218 218 217 216 217 218 216 216 215 213 214 219 218 208 204 201 195 194 200 195 184 187 190 187 184 180 178 159 137 125 111 101
184 202 248 242 228 273 296 173 109 312 250 238 226 252 271 268 271 275 261 265 275 275 277 277 273 271 272 272 271 271 273 274 274 271 265 259 259 260 261 264 262 254 250 246 240 237 232 229 226 222 221 222 220 219 219 218 218 218 217 218 219 219 220 220 220 219 218 217 216 218 219 217 216 214 213 213 216 218 212 209 205 194 192 200 197 188 193 192 186 186 185 179 163 141 130 121 112
180 202 234 259 228 230 270 269 65 329 253 256 249 253 269 272 274 272 267 270 272 270 274 276 274 272 274 277 275 274 272 269 270 273 274 272 268 265 261 262 262 254 247 243 237 234 230 227 224 221 219 219 218 218 217 216 216 216 215 216 218 219 219 219 219 218 217 217 217 220 219 216 217 214 212 213 214 217 216 214 209 196 195 200 200 195 195 195 191 192 190 180 167 153 143 133 123
112 190 254 283 275 250 263 273 40 332 274 262 255 260 274 280 280 271 263 265 268 272 275 274 272 271 270 269 270 269 268 267 268 273 278 278 269 266 263 260 258 253 246 239 233 229 225 222 220 218 217 216 215 214 213 212 211 211 212 212 214 215 216 217 218 217 218 219 218 220 219 217 218 214 212 213 213 217 217 217 213 203 199 199 203 200 195 197 195 195 192 181 170 157 148 142 131
138 220 263 266 268 273 272 278 70 82 275 264 254 272 278 281 282 276 264 260 265 272 275 274 276 279 271 265 267 268 268 271 277 278 277 273 267 269 266 257 251 246 241 233 225 223 219 216 216 214 214 213 211 209 208 207 206 205 205 208 209 211 213 214 215 216 217 219 219 219 220 219 218 215 214 213 214 216 216 217 215 209 203 199 204 204 200 201 196 195 190 178 170 159 152 150 141
247 252 270 266 252 270 279 331 317 156 265 262 258 287 282 280 283 283 276 260 259 264 270 276 285 291 284 271 267 270 275 279 279 276 270 264 267 277 274 256 241 231 230 226 218 215 213 213 215 213 212 212 210 208 207 207 207 205 205 205 206 208 211 213 213 216 218 219 218 218 220 221 219 217 216 215 216 216 216 217 216 213 207 201 203 203 204 205 200 196 187 175 170 165 163 162 154
233 238 267 268 257 273 269 74 107 177 247 288 353 305 287 282 282 284 279 262 260 259 262 276 285 284 277 272 274 281 288 285 283 283 272 274 287 289 280 256 236 227 226 225 217 211 209 211 213 212 212 211 209 210 209 208 208 208 207 208 206 206 210 213 214 218 220 219 218 218 220 222 220 218 218 217 217 217 217 218 218 216 212 207 205 203 202 203 203 199 190 179 173 171 174 173 170
223 224 253 258 303 288 258 76 108 211 254 295 302 293 279 279 282 282 262 224 250 261 252 261 260 260 263 279 293 286 284 288 295 299 307 307 298 290 275 260 241 230 222 220 215 210 207 209 210 209 212 212 210 211 210 209 208 207 206 208 208 207 210 213 214 219 220 219 218 218 220 221 220 220 219 219 219 219 218 219 220 218 215 211 208 205 204 203 204 201 195 189 183 177 180 187 190
221 217 237 250 242 240 257 347 314 255 216 273 291 282 261 277 300 296 269 176 225 252 257 261 246 240 252 279 287 265 263 277 291 299 310 313 304 297 281 275 257 235 224 222 217 213 210 210 210 209 211 212 211 212 211 208 206 202 199 200 201 202 206 207 209 214 216 216 217 218 219 220 220 221 221 220 220 220 219 220 221 220 218 214 209 208 208 207 207 204 200 197 194 190 185 192 201
242 214 229 244 271 260 269 304 290 266 201 185 309 299 274 318 307 296 304 331 300 280 261 273 267 246 237 256 264 240 243 258 265 280 293 302 304 301 288 273 253 238 229 229 224 219 217 213 212 211 210 211 211 212 210 205 202 198 193 188 186 190 194 199 205 210 212 212 215 217 218 220 221 221 221 221 221 222 220 220 221 219 219 217 212 208 209 210 210 208 206 204 203 202 194 191 202
278 235 233 197 151 242 267 267 263 281 289 175 312 288 286 317 298 289 330 334 314 313 290 289 285 253 226 235 243 234 261 269 263 269 278 289 298 301 296 283 251 243 239 237 230 223 218 213 212 211 208 209 210 210 208 203 199 197 196 194 192 191 191 202 209 211 213 214 215 217 218 219 221 222 221 222 221 222 221 220 220 219 219 219 216 211 211 212 212 211 211 210 208 207 206 202 201
283 61 66 120 159 208 223 245 260 296 315 266 121 282 274 295 287 283 20 320 309 335 7 23 52 103 178 227 239 256 280 291 289 287 290 291 292 294 295 294 279 261 253 243 230 222 217 212 213 212 208 209 210 209 207 202 199 198 199 199 199 199 200 207 211 212 214 216 216 218 219 219 221 222 222 222 222 222 222 220 219 218 219 220 218 216 216 214 214 213 214 214 213 212 213 213 208
44 113 123 115 141 203 195 241 268 332 311 275 126 323 260 258 267 269 22 301 281 23 44 52 58 63 198 263 272 277 279 280 281 284 291 296 294 291 289 288 286 276 258 237 225 221 216 212 213 212 210 211 212 210 207 203 201 202 202 201 202 205 207 211 212 212 213 215 216 218 218 220 222 222 222 223 223 223 223 221 219 218 218 219 218 218 219 218 216 216 215 215 217 218 217 218 217
115 133 128 113 110 83 162 256 272 148 276 262 138 196 270 264 269 270 54 244 229 124 58 81 300 281 257 270 287 295 299 289 281 280 283 290 292 289 287 281 278 273 251 226 218 218 213 212 211 210 210 211 212 211 208 205 204 205 205 204 205 207 209 211 212 212 212 214 215 216 218 219 221 222 222 223 223 223 223 222 221 219 218 219 218 218 220 220 218 217 217 218 220 221 221 221 222
126 153 169 174 152 134 155 282 281 226 246 227 111 114 279 282 271 249 202 207 207 240 280 288 303 302 287 288 306 318 322 310 304 299 290 291 290 286 284 275 267 259 234 212 210 211 209 209 208 208 209 210 211 210 209 208 207 206 207 208 209 209 210 209 209 209 211 212 213 215 217 218 220 222 223 224 224 223 223 223 222 221 220 219 219 219 220 220 219 219 219 220 222 223 224 225 226
165 195 234 246 212 178 187 161 182 239 238 111 80 60 238 254 252 230 239 240 215 230 277 301 309 321 315 314 328 331 322 312 309 305 301 306 303 295 285 269 251 233 216 202 205 207 206 206 204 204 207 209 211 211 210 209 209 209 210 211 212 212 212 211 210 210 212 213 213 214 215 216 218 221 222 224 225 224 223 223 223 221 220 220 219 219 220 220 220 220 220 221 223 224 226 227 228
209 214 220 254 263 242 235 206 189 244 253 81 66 118 219 250 255 265 270 262 246 232 247 279 297 314 312 316 330 326 315 310 306 305 305 307 308 305 296 284 254 220 208 201 204 204 204 206 204 204 207 210 211 211 211 211 211 212 212 213 214 215 215 215 214 215 215 216 215 214 213 214 216 219 221 224 226 226 224 223 223 221 220 221 220 220 220 220 220 221 222 222 223 224 225 227 229
189 195 203 234 247 251 241 239 273 273 352 93 128 189 255 265 262 257 261 269 285 265 248 267 291 300 299 308 317 309 303 304 300 303 301 295 299 301 302 303 293 261 228 213 211 208 207 207 207 207 209 213 213 212 212 213 214 216 216 216 217 217 217 218 218 219 219 220 219 218 217 217 218 221 224 226 228 228 227 226 226 224 223 223 222 222 222 221 221 221 223 224 225 227 227 228 230
173 142 323 255 242 259 261 270 285 303 346 150 163 229 249 253 323 279 261 272 285 271 267 289 286 279 290 299 296 292 294 300 303 302 294 289 296 302 309 310 300 285 257 231 223 218 214 212 212 212 211 215 216 215 215 215 217 219 219 219 219 219 220 221 222 223 223 223 223 222 222 222 223 226 228 229 230 231 229 228 228 227 226 225 225 224 224 224 222 222 224 227 228 229 229 230 231
146 98 218 255 267 280 296 344 335 340 314 238 191 249 251 257 300 294 279 275 268 264 271 293 283 279 299 295 287 287 293 304 310 302 299 302 304 302 303 298 285 276 267 246 233 226 223 222 222 221 219 221 222 220 219 220 220 221 222 222 222 222 222 222 224 225 226 226 227 227 227 229 230 231 232 232 232 233 232 231 231 229 228 227 226 226 226 226 224 223 225 227 229 230 231 232 233
153 173 189 226 10 30 140 161 56 26 272 256 184 263 276 299 293 281 286 319 12 22 215 238 276 290 298 281 270 274 287 304 307 305 312 313 310 300 282 288 292 288 286 273 255 244 237 233 233 231 229 228 228 227 225 225 224 225 226 226 225 224 224 224 226 227 228 229 230 231 231 232 234 234 234 235 234 235 235 234 232 231 230 228 228 227 228 228 227 226 226 228 230 231 233 233 234
172 172 140 83 54 17 178 250 259 201 257 264 205 265 279 304 295 293 304 327 39 80 107 294 294 287 277 267 251 248 247 258 278 285 300 303 298 290 279 300 319 315 303 293 277 264 252 243 239 238 236 234 232 232 231 230 229 229 229 229 228 227 227 228 228 230 231 231 230 231 232 233 235 236 237 237 236 235 235 235 234 233 232 231 230 229 229 229 229 228 228 230 231 232 233 234 235
331 310 32 1 225 187 164 238 258 243 267 275 261 279 268 214 221 273 273 245 207 220 246 284 279 255 256 270 278 289 285 277 282 281 285 284 276 277 274 291 308 309 300 294 281 267 256 249 244 240 240 239 237 237 236 235 234 232 232 232 231 230 230 230 231 232 233 232 232 232 233 235 237 238 238 237 236 235 235 235 235 234 233 233 231 231 230 230 230 229 230 231 232 233 233 234 236
284 259 184 245 290 291 180 180 281 262 269 290 300 310 265 212 198 242 262 246 220 233 246 251 253 242 240 258 290 313 320 315 308 301 293 282 268 262 252 269 286 290 286 282 276 265 256 251 248 243 241 240 239 239 238 237 236 235 235 234 233 233 232 233 233 233 234 234 234 235 236 237 238 239 238 237 236 235 235 235 234 233 233 233 232 230 230 230 229 229 230 231 231 231 231 232 234
181 200 185 180 177 322 268 203 26 283 261 266 284 289 271 235 180 225 254 260 244 238 249 247 247 248 248 264 309 309 306 299 297 299 297 294 289 276 258 269 278 279 278 277 275 269 260 253 248 244 242 240 240 240 238 237 236 236 235 234 234 234 234 235 235 235 235 235 236 237 238 239 240 239 239 237 235 235 234 234 234 233 232 232 231 230 229 228 228 229 229 230 231 230 230 230 231
186 194 193 189 169 159 226 222 180 301 266 247 242 285 278 263 155 222 245 256 252 239 245 249 247 249 262 312 313 290 284 283 286 290 291 291 292 289 281 279 277 273 274 276 276 271 265 259 253 247 242 239 241 241 239 237 235 233 233 232 233 233 234 235 236 236 236 236 236 238 239 239 240 240 240 239 237 236 235 234 233 233 232 231 231 231 229 228 228 228 229 230 230 230 230 230 230